K9APR Weather Reports


Display with metric or nautical units.
time (UTC)temp
F
wind
direction
speed
MPH
gust
MPH
rain 1hr
in
rain 24hr
in
rain mn
in
humidity
%
barometer
mb
20260504032320 55 164 3.0 5.0 0.00 0.00 0.00 61 1012.9
20260504031420 55 144 6.0 8.0 0.00 0.00 0.00 60 1012.9
20260504030520 55 140 5.0 6.0 0.00 0.00 0.00 60 1012.8
20260504025620 55 145 3.0 5.0 0.00 0.00 0.00 59 1013.0
20260504024719 55 168 3.0 9.0 0.00 0.00 0.00 59 1013.0
20260504023821 55 152 3.0 3.0 0.00 0.00 0.00 58 1013.1
20260504022921 56 156 3.0 6.0 0.00 0.00 0.00 57 1013.2
20260504022027 56 161 2.0 5.0 0.00 0.00 0.00 57 1013.2
20260504022020 56 161 2.0 5.0 0.00 0.00 0.00 57 1013.2
20260504021119 56 155 2.0 3.0 0.00 0.00 0.00 55 1013.3
20260504020219 56 135 2.0 3.0 0.00 0.00 0.00 55 1013.3
20260504015319 56 157 1.0 3.0 0.00 0.00 0.00 55 1013.2
20260504014420 56 149 6.0 6.0 0.00 0.00 0.00 54 1013.3
20260504013519 56 164 3.0 7.0 0.00 0.00 0.00 53 1013.3
20260504012620 56 187 2.0 3.0 0.00 0.00 0.00 53 1013.2
20260504011720 56 162 3.0 7.0 0.00 0.00 0.00 53 1013.4
20260504010819 56 157 2.0 3.0 0.00 0.00 0.00 53 1013.3
20260504005920 56 160 2.0 3.0 0.00 0.00 0.00 53 1013.2
20260504005019 57 160 1.0 3.0 0.00 0.00 0.00 53 1013.3
20260504003219 57 168 2.0 2.0 0.00 0.00 0.00 52 1013.3
20260504002321 57 234 2.0 3.0 0.00 0.00 0.00 52 1013.2
20260504001421 58 215 3.0 5.0 0.00 0.00 0.00 51 1013.3
20260504000520 58 219 3.0 3.0 0.00 0.00 0.00 50 1013.1
20260503235619 58 167 3.0 5.0 0.00 0.00 0.00 49 1013.2
20260503234720 58 201 6.0 10.0 0.00 0.00 0.00 48 1013.1
20260503233819 58 186 6.0 5.0 0.00 0.00 0.00 48 1013.0
20260503232920 58 174 3.0 6.0 0.00 0.00 0.00 48 1013.1
20260503232019 58 150 7.0 12.0 0.00 0.00 0.00 47 1013.2
20260503231120 58 151 8.0 9.0 0.00 0.00 0.00 47 1013.1
20260503230220 58 217 7.0 12.0 0.00 0.00 0.00 47 1013.3
20260503225319 58 203 5.0 7.0 0.00 0.00 0.00 49 1013.4
20260503224420 58 207 6.0 9.0 0.00 0.00 0.00 49 1013.4
20260503223520 58 154 3.0 8.0 0.00 0.00 0.00 51 1013.6
20260503222620 58 181 8.0 9.0 0.00 0.00 0.00 51 1013.8
20260503221720 57 172 9.0 14.0 0.00 0.00 0.00 51 1014.1
20260503215921 54 93 2.0 6.0 0.00 0.00 0.00 66 1014.3
20260503215603 54 100 1.0 3.0 0.00 0.00 0.00 68 1014.5
20260503214705 54 108 0.0 1.0 0.00 0.00 0.00 67 1014.6
20260503213803 53 65 1.0 2.0 0.00 0.00 0.00 68 1014.8
20260503212904 53 93 2.0 3.0 0.00 0.00 0.00 66 1015.0
20260503212004 53 1 0.0 2.0 0.00 0.00 0.00 71 1015.1
20260503211104 53 74 1.0 2.0 0.00 0.00 0.00 69 1015.1
20260503210204 53 104 1.0 1.0 0.00 0.00 0.00 70 1015.3
20260503204403 52 91 1.0 2.0 0.00 0.00 0.00 71 1015.5
20260503203503 50 261 0.0 1.0 0.00 0.00 0.00 76 1015.8
20260503202603 49 32 0.0 2.0 0.00 0.00 0.00 77 1016.0
20260503201703 49 39 0.0 0.0 0.00 0.00 0.00 73 1016.5
20260503200803 50 233 0.0 2.0 0.00 0.00 0.00 69 1016.9
20260503195903 51 355 1.0 2.0 0.00 0.00 0.00 64 1017.5
20260503195005 54 220 7.0 12.0 0.00 0.00 0.00 56 1017.9
20260503194104 55 217 12.0 16.0 0.00 0.00 0.00 49 1017.3
20260503193203 57 234 9.0 13.0 0.00 0.00 0.00 43 1016.9
20260503192305 57 253 3.0 7.0 0.00 0.00 0.00 43 1016.5
20260503191406 57 238 5.0 12.0 0.00 0.00 0.00 42 1016.6
20260503190503 58 221 7.0 8.0 0.00 0.00 0.00 40 1016.8
20260503185604 59 249 6.0 10.0 0.00 0.00 0.00 40 1017.0
20260503184705 59 222 6.0 8.0 0.00 0.00 0.00 41 1017.2
20260503183804 59 256 7.0 14.0 0.00 0.00 0.00 40 1017.3
20260503182903 60 212 8.0 17.0 0.00 0.00 0.00 42 1017.5
20260503182003 59 216 10.0 13.0 0.00 0.00 0.00 40 1017.6
20260503181104 59 250 10.0 12.0 0.00 0.00 0.00 41 1017.7
20260503180203 59 199 7.0 12.0 0.00 0.00 0.00 43 1017.7
20260503175305 59 231 7.0 8.0 0.00 0.00 0.00 43 1017.8
20260503174404 58 262 6.0 12.0 0.00 0.00 0.00 41 1018.0
20260503173503 58 234 7.0 15.0 0.00 0.00 0.00 44 1018.1
20260503172603 58 194 9.0 14.0 0.00 0.00 0.00 43 1018.1
20260503171704 57 210 8.0 16.0 0.00 0.00 0.00 42 1018.3
20260503170804 58 215 12.0 17.0 0.00 0.00 0.00 40 1018.4
20260503150203 54 242 6.0 16.0 0.00 0.00 0.00 53 1019.9
20260503131403 46 250 2.0 5.0 0.00 0.00 0.00 67 1020.0
20260503130504 45 243 2.0 6.0 0.00 0.00 0.00 70 1020.2
20260503120204 37 246 1.0 2.0 0.00 0.00 0.00 81 1020.3
20260503080804 34 202 0.0 0.0 0.00 0.00 0.00 85 1019.2
20260503072305 35 247 0.0 0.0 0.00 0.00 0.00 83 1019.2
20260503071402 35 247 0.0 0.0 0.00 0.00 0.00 84 1019.4
20260503070504 34 300 0.0 0.0 0.00 0.00 0.00 85 1019.4
20260503060205 34 302 0.0 1.0 0.00 0.00 0.00 86 1019.9
20260503054402 35 302 0.0 1.0 0.00 0.00 0.00 85 1019.9
20260503053504 35 302 0.0 0.0 0.00 0.00 0.00 85 1019.9
20260503052604 35 302 0.0 1.0 0.00 0.00 0.00 84 1020.0
20260503051702 35 302 0.0 1.0 0.00 0.00 0.00 84 1019.9
20260503050804 35 302 0.0 0.0 0.00 0.00 0.00 84 1019.9
20260503045904 35 302 0.0 0.0 0.00 0.00 0.00 84 1019.9
20260503045002 35 302 0.0 0.0 0.00 0.00 0.00 83 1019.8
20260503044103 36 302 0.0 0.0 0.00 0.00 0.00 82 1019.7
20260503043204 36 302 0.0 0.0 0.00 0.00 0.00 81 1019.7
20260503042305 36 302 0.0 0.0 0.00 0.00 0.00 79 1019.7
20260503041404 36 302 0.0 0.0 0.00 0.00 0.00 77 1019.5
20260503040504 37 302 0.0 0.0 0.00 0.00 0.00 76 1019.6
20260503035602 37 302 0.0 0.0 0.00 0.00 0.00 77 1019.7
20260503034702 37 302 0.0 0.0 0.00 0.00 0.00 77 1019.8
20260503033803 36 302 0.0 0.0 0.00 0.00 0.00 78 1019.8